Tracking 18945 objects as of 20-Jan-2018
HD Live streaming from Space Station
objects crossing your sky now

SL-16 DEB

Track SL-16 DEB now!
10-day predictions


NORAD ID: 28354
Int'l Code: 2004-021C
Perigee: 847.4 km
Apogee: 1,178.5 km
Inclination: 71.0 °
Period: 105.2 minutes
Semi major axis: 7383 km
RCS: 0.0814 m2 (small)
Launch date: June 10, 2004
Source: Commonwealth of Independent States (former USSR) (CIS)
Launch site: TYURATAM MISSILE AND SPACE COMPLEX (TTMTR)

Note: This is SATELLITE DEBRIS
aabbcc
Your satellite tracking list
Your tracking list is empty




NASA's NSSDC Master Catalog

Two Line Element Set (TLE):
1 28354U 04021C   18019.96803558 +.00000047 +00000-0 +88583-4 0  9999
2 28354 070.9572 008.8756 0224214 332.6654 026.2785 13.68265999679259
Source of the keplerian elements: AFSPC